K4YOU Weather Reports


time (UTC)temp
C
wind
direction
speed
KPH
gust
KPH
rain 1hr
cm
rain 24hr
cm
rain mn
cm
humidity
%
barometer
mb
20260505153004 27 86 3.2 6.4 0.00 0.00 0.00 50 1016.5
20260505151502 27 86 1.6 14.5 0.00 0.00 0.00 51 1016.4
20260505150116 26 153 1.6 6.4 0.00 0.00 0.00 52 1016.5
20260505124536 19 134 1.6 8.0 0.00 0.00 0.00 70 1016.8
20260505123046 18 60 0.0 3.2 0.00 0.00 0.00 73 1016.7
20260505121533 17 94 1.6 6.4 0.00 0.00 0.00 76 1016.7
20260505120037 16 77 0.0 4.8 0.00 0.00 0.00 79 1016.7
20260505114533 15 119 0.0 6.4 0.00 0.00 0.00 80 1016.7
20260505113024 15 103 0.0 4.8 0.00 0.00 0.00 81 1016.6
20260505111523 14 85 0.0 4.8 0.00 0.00 0.00 82 1016.5
20260505101519 14 89 0.0 4.8 0.00 0.00 0.00 81 1015.9
20260505100016 14 105 0.0 3.2 0.00 0.00 0.00 81 1015.6
20260505094512 14 120 0.0 1.6 0.00 0.00 0.00 80 1015.5
20260505093011 14 101 0.0 1.6 0.00 0.00 0.00 80 1015.4
20260505091509 14 101 0.0 1.6 0.00 0.00 0.00 80 1015.4
20260505090009 14 98 0.0 4.8 0.00 0.00 0.00 80 1015.3
20260505084509 14 91 0.0 3.2 0.00 0.00 0.00 79 1015.3
20260505083006 15 91 0.0 3.2 0.00 0.00 0.00 79 1015.3
20260505081502 15 118 0.0 1.6 0.00 0.00 0.00 78 1015.3
20260505080002 15 94 0.0 1.6 0.00 0.00 0.00 78 1015.1
20260505074559 15 94 0.0 3.2 0.00 0.00 0.00 77 1015.0
20260505073100 15 98 0.0 1.6 0.00 0.00 0.00 76 1014.9
20260505071558 15 98 0.0 3.2 0.00 0.00 0.00 76 1014.9
20260505070057 16 103 0.0 3.2 0.00 0.00 0.00 75 1014.8
20260505064553 16 117 0.0 1.6 0.00 0.00 0.00 74 1014.7
20260505063054 16 117 0.0 3.2 0.00 0.00 0.00 73 1014.9
20260505061550 16 112 0.0 1.6 0.00 0.00 0.00 72 1015.0
20260505060048 16 105 0.0 4.8 0.00 0.00 0.00 72 1014.9
20260505054546 16 119 0.0 6.4 0.00 0.00 0.00 71 1015.1
20260505053045 17 115 0.0 4.8 0.00 0.00 0.00 70 1015.1
20260505051543 17 90 0.0 6.4 0.00 0.00 0.00 70 1015.2
20260505050118 17 97 0.0 3.2 0.00 0.00 0.00 70 1015.2
20260505041550 17 100 1.6 14.5 0.00 0.00 0.00 70 1015.2
20260505040046 17 133 0.0 4.8 0.00 0.00 0.00 70 1015.0
20260505034535 17 77 1.6 8.0 0.00 0.00 0.00 70 1015.0
20260505033037 17 73 1.6 12.9 0.00 0.00 0.00 69 1014.8
20260505031543 17 132 0.0 6.4 0.00 0.00 0.00 69 1015.0
20260505030039 18 127 1.6 6.4 0.00 0.00 0.00 69 1015.0
20260505024533 18 81 0.0 9.7 0.00 0.00 0.00 69 1015.0
20260505023039 18 145 1.6 9.7 0.00 0.00 0.00 69 1014.7
20260505021531 18 32 3.2 9.7 0.00 0.00 0.00 70 1014.8
20260505020034 18 98 1.6 3.2 0.00 0.00 0.00 69 1015.0
20260505014534 18 72 1.6 11.3 0.00 0.00 0.00 69 1014.8
20260505013030 18 86 1.6 6.4 0.00 0.00 0.00 69 1014.6
20260505011531 19 115 0.0 6.4 0.00 0.00 0.00 69 1014.5
20260505010029 19 75 0.0 6.4 0.00 0.00 0.00 69 1014.1
20260505004535 19 77 1.6 8.0 0.00 0.00 0.00 68 1013.9
20260505003027 20 68 1.6 8.0 0.00 0.00 0.00 66 1013.7
20260505001527 20 83 1.6 8.0 0.00 0.00 0.00 66 1013.7
20260505000030 20 91 1.6 6.4 0.00 0.00 0.00 64 1013.5
20260504234525 21 80 1.6 9.7 0.00 0.00 0.00 63 1013.3
20260504233024 21 95 0.0 4.8 0.00 0.00 0.00 61 1013.2
20260504231524 22 102 3.2 8.0 0.00 0.00 0.00 58 1013.0
20260504230021 23 58 0.0 8.0 0.00 0.00 0.00 56 1013.0
20260504224520 24 70 3.2 11.3 0.00 0.00 0.00 51 1012.8
20260504223020 26 119 0.0 9.7 0.00 0.00 0.00 40 1012.6
20260504221520 26 100 0.0 8.0 0.00 0.00 0.00 40 1012.7
20260504220017 26 106 1.6 16.1 0.00 0.00 0.00 40 1012.6
20260504214515 26 37 3.2 11.3 0.00 0.00 0.00 40 1012.7
20260504213035 26 103 3.2 9.7 0.00 0.00 0.00 39 1012.9
20260504211516 27 85 0.0 8.0 0.00 0.00 0.00 39 1012.9
20260504210014 27 108 0.0 8.0 0.00 0.00 0.00 40 1013.0
20260504204510 27 122 1.6 9.7 0.00 0.00 0.00 39 1013.0
20260504203011 27 110 3.2 11.3 0.00 0.00 0.00 39 1013.0
20260504201512 26 92 0.0 19.3 0.00 0.00 0.00 40 1013.1
20260504200005 27 85 1.6 9.7 0.00 0.00 0.00 41 1013.2
20260504194504 27 105 1.6 16.1 0.00 0.00 0.00 40 1013.4
20260504193003 27 60 0.0 6.4 0.00 0.00 0.00 41 1013.5
20260504191502 27 67 1.6 12.9 0.00 0.00 0.00 39 1013.7
20260504190117 27 135 3.2 14.5 0.00 0.00 0.00 38 1014.0
20260504184607 27 46 1.6 11.3 0.00 0.00 0.00 40 1014.1
20260504183055 27 117 0.0 6.4 0.00 0.00 0.00 41 1014.3
20260504181553 27 120 1.6 8.0 0.00 0.00 0.00 43 1014.6
20260504180051 27 130 0.0 9.7 0.00 0.00 0.00 41 1014.6
20260504174600 26 105 3.2 12.9 0.00 0.00 0.00 43 1014.9
20260504173053 26 103 1.6 11.3 0.00 0.00 0.00 43 1014.9
20260504171547 26 121 0.0 9.7 0.00 0.00 0.00 43 1015.2